Date,TemperatureHighF,TemperatureAvgF,TemperatureLowF,DewpointHighF,DewpointAvgF,DewpointLowF,HumidityHigh,HumidityAvg,HumidityLow,PressureMaxIn,PressureMinIn,WindSpeedMaxMPH,WindSpeedAvgMPH,GustSpeedMaxMPH,PrecipitationSumIn
2014-1-1,58.8,42.3,24.6,34.3,26.3,17.5,74,54,35,30.20,29.91,11,1,11,0.00
2014-1-2,32.9,19.2,9.5,18.7,10.0,1.2,80,68,47,30.47,30.16,9,1,10,0.00
2014-1-3,44.1,25.7,7.0,22.4,12.3,0.3,78,59,38,30.47,30.01,12,1,12,0.00
2014-1-4,43.0,38.4,32.2,35.1,29.2,17.3,89,70,54,30.02,29.83,14,2,15,0.00
2014-1-5,37.8,19.2,1.2,34.9,16.2,-2.9,91,88,83,30.50,29.81,18,2,18,0.00
2014-1-6,16.0,2.8,-3.8,10.3,-2.1,-8.5,83,79,69,30.64,30.49,6,0,7,0.00
2014-1-7,38.5,20.6,-3.5,30.4,13.9,-8.1,83,75,64,30.50,30.24,11,1,14,0.00
2014-1-8,34.5,30.7,24.4,30.2,26.4,19.8,92,84,72,30.33,30.24,5,0,6,0.00
2014-1-9,40.6,32.6,30.9,38.5,30.6,28.9,93,92,92,30.28,30.16,0,0,0,0.00
2014-1-11,55.0,37.4,25.2,51.8,34.2,23.1,92,88,78,30.05,29.93,7,0,7,0.00
2014-1-12,68.4,48.2,23.5,45.2,31.3,21.3,93,59,26,30.05,29.72,20,2,26,0.00
2014-1-13,61.9,45.6,25.5,44.6,30.9,17.1,75,58,36,30.00,29.74,9,0,10,0.00
2014-1-14,52.2,36.7,22.5,35.4,22.3,9.7,77,57,43,30.26,29.92,8,0,8,0.00
2014-1-15,46.0,31.7,17.2,21.1,15.3,6.7,66,52,36,30.31,30.00,8,0,8,0.00
2014-1-16,57.9,42.7,32.5,32.3,22.2,15.5,63,45,28,30.09,29.92,12,1,12,0.00
2014-1-17,42.4,28.5,16.0,16.2,7.4,0.6,61,42,26,30.25,30.08,10,1,11,0.00
2014-1-18,61.9,40.6,15.6,29.6,20.1,4.8,66,45,28,30.15,29.89,15,1,15,0.00
2014-1-19,35.4,23.1,15.6,20.4,12.1,7.7,71,63,53,30.21,30.15,8,0,8,0.00
2014-1-20,77.5,54.7,32.2,37.5,28.1,19.4,61,37,23,30.20,29.90,8,1,11,0.00
2014-1-21,43.3,25.2,12.0,20.5,6.5,-3.2,67,47,25,30.42,30.17,14,1,14,0.00
2014-1-22,57.0,29.6,11.7,25.1,12.8,2.6,77,53,29,30.30,30.13,7,0,8,0.00
2014-1-23,26.8,19.4,13.1,12.6,2.3,-5.1,63,48,31,30.71,30.29,12,3,15,0.00
2014-1-24,42.1,19.5,-4.4,10.5,-1.3,-12.5,69,45,20,30.73,30.08,5,0,5,0.00
2014-1-25,73.9,44.1,25.3,34.6,21.3,5.8,81,44,22,30.06,29.98,7,1,7,0.00
2014-1-26,82.0,59.1,22.8,40.5,30.9,18.9,86,37,21,30.03,29.72,22,1,22,0.00
2014-1-27,37.9,20.7,15.6,21.4,-0.5,-7.9,51,39,31,30.42,30.04,18,3,18,0.00
2014-1-28,39.0,20.3,9.7,4.8,-2.1,-6.5,53,38,23,30.50,30.36,8,0,9,0.00
2014-1-29,45.0,25.4,7.2,12.7,4.7,-5.3,68,44,25,30.39,30.11,9,0,10,0.00
2014-1-30,49.6,35.9,27.9,27.1,15.8,5.9,66,44,33,30.11,29.85,15,2,17,0.00
2014-1-31,48.7,42.6,31.8,41.8,35.2,21.4,83,75,65,29.95,29.82,6,0,6,0.00
2014-2-1,55.4,38.1,27.3,50.7,34.7,24.5,90,87,83,30.13,29.78,12,1,12,0.00
2014-2-2,27.5,23.6,8.4,24.7,19.7,3.8,89,85,81,30.29,30.13,11,2,11,0.00
2014-2-3,49.8,24.0,0.3,27.9,13.4,-3.7,85,67,39,30.32,30.11,3,0,4,0.00
2014-2-4,32.4,29.5,25.0,28.1,22.8,13.3,89,77,53,30.13,29.89,9,0,9,0.00
2014-2-5,28.9,16.8,7.9,25.6,10.8,1.3,87,77,68,30.57,30.04,10,1,10,0.00
2014-2-6,27.0,12.1,6.6,13.2,3.0,-0.3,75,67,53,30.59,30.41,8,0,9,0.00
2014-2-7,28.6,19.5,8.4,18.3,11.1,-0.3,77,69,64,30.42,30.22,0,0,2,0.00
2014-2-8,36.1,28.7,23.2,28.0,23.1,17.0,87,79,72,30.23,30.07,3,0,6,0.00
2014-2-9,33.3,30.4,28.2,27.9,26.0,23.4,87,84,79,30.25,30.14,7,0,7,0.00
2014-2-10,32.7,25.7,21.6,23.4,18.1,12.2,86,73,63,30.37,30.24,9,1,9,0.00
2014-2-11,44.4,27.6,19.6,17.3,11.8,6.8,67,53,32,30.41,30.23,5,0,6,0.00
2014-2-12,52.9,30.2,15.1,25.1,14.5,5.4,72,54,32,30.25,30.02,0,0,0,0.00
2014-2-13,60.6,37.1,20.5,31.1,22.0,14.8,82,58,28,30.04,29.84,7,0,10,0.00
2014-2-14,57.0,40.6,25.0,37.6,29.1,17.1,75,64,44,30.15,29.68,8,0,8,0.00
2014-2-15,72.3,38.8,21.7,37.7,24.6,14.1,82,60,26,30.16,29.95,0,0,1,0.00
2014-2-16,80.4,46.8,27.7,43.9,29.4,20.8,83,54,24,30.16,29.95,0,0,0,0.00
2014-2-17,65.7,46.8,27.0,53.4,37.6,17.8,82,71,56,30.17,29.84,0,0,0,0.00
2014-2-18,78.1,48.0,21.0,39.2,28.5,15.5,80,53,23,30.15,29.84,0,0,0,0.00
2014-2-19,75.0,49.7,35.2,48.5,31.5,25.8,81,53,24,30.04,29.89,2,0,2,0.00
2014-2-20,62.1,43.4,33.4,40.0,28.2,20.1,66,55,43,30.02,29.72,0,0,0,0.00
2014-2-21,61.9,45.1,24.6,26.0,19.2,13.1,65,38,20,30.11,30.00,0,0,0,0.00
2014-2-22,70.9,53.8,39.4,36.1,27.6,17.0,51,37,26,30.05,29.85,0,0,0,0.00
2014-2-23,55.2,42.8,33.4,35.3,28.5,18.6,76,58,46,30.25,29.92,0,0,0,0.00
2014-2-24,58.8,42.4,27.1,27.7,21.5,15.6,64,45,30,30.30,30.09,0,0,0,0.00
2014-2-25,48.9,39.7,25.5,24.0,20.5,13.7,60,47,34,30.30,30.15,0,0,0,0.00
2014-2-26,35.8,22.7,14.2,13.7,6.6,-1.2,67,51,29,30.35,30.11,0,0,0,0.00
2014-2-27,55.9,35.6,13.8,23.2,13.9,-0.3,62,43,27,30.13,29.94,0,0,0,0.00
2014-2-28,44.2,38.5,29.5,34.5,26.1,12.6,80,62,45,30.02,29.84,0,0,0,0.00
2014-3-1,58.8,40.0,29.3,48.3,34.2,25.9,89,80,67,30.12,30.02,0,0,0,0.00
2014-3-2,37.8,18.1,7.0,30.2,13.7,2.1,87,83,72,30.36,30.08,0,0,0,0.00
2014-3-3,29.5,14.7,2.1,13.6,5.1,-3.3,81,67,49,30.47,30.29,0,0,0,0.00
2014-3-4,52.3,29.0,11.5,23.8,14.5,5.3,81,58,31,30.29,30.08,0,0,0,0.00
2014-3-5,53.8,36.3,20.1,26.4,18.9,12.1,74,52,27,30.20,30.08,0,0,0,0.00
2014-3-6,57.2,40.9,27.1,30.2,24.4,15.8,76,54,32,30.24,30.07,0,0,0,0.00
2014-3-7,61.2,43.1,23.4,36.7,27.9,15.6,80,57,37,30.08,29.89,0,0,0,0.00
2014-3-8,48.0,38.2,32.7,39.0,31.5,24.8,88,77,62,30.31,30.00,0,0,0,0.00
2014-3-9,55.0,43.9,34.5,44.3,37.2,31.0,88,78,65,30.34,30.17,0,0,0,0.00
2014-3-10,74.1,52.8,35.4,44.6,36.6,29.2,90,60,26,30.17,29.83,0,0,0,0.00
2014-3-11,77.5,62.9,47.5,55.0,47.3,36.2,79,58,44,29.87,29.53,0,0,0,0.00
2014-3-12,55.4,44.0,31.3,36.6,26.6,18.1,73,53,32,30.23,29.80,0,0,0,0.00
2014-3-13,67.1,47.5,25.5,31.8,24.7,17.4,74,45,23,30.25,30.05,0,0,0,0.00
2014-3-14,70.7,54.1,42.6,40.9,33.0,26.3,62,46,33,30.06,29.98,0,0,0,0.00
2014-3-15,69.6,54.2,39.4,52.0,43.9,30.0,87,69,50,30.06,29.83,0,0,0,0.00
2014-3-16,54.1,53.4,51.4,50.6,50.4,48.8,91,90,87,29.84,29.72,0,0,0,0.00
2014-3-17,57.0,48.1,40.6,33.7,29.3,25.9,64,49,36,29.79,29.74,0,0,0,0.00
2014-3-18,69.6,54.4,41.2,44.1,38.0,33.7,77,56,35,29.83,29.56,0,0,0,0.00
2014-3-19,57.4,45.5,31.6,37.1,29.1,20.3,73,54,37,30.23,29.84,0,0,0,0.00
2014-3-20,69.1,44.8,25.9,36.4,25.7,19.2,80,54,20,30.23,30.05,0,0,0,0.00
2014-3-21,72.1,59.4,44.1,48.7,37.6,24.8,74,45,36,30.06,29.87,0,0,0,0.00
2014-3-22,61.9,49.6,40.5,36.7,32.5,27.8,71,53,32,30.26,30.06,0,0,0,0.00
2014-3-23,52.2,41.0,30.4,32.4,24.8,18.1,76,53,40,30.44,30.25,0,0,0,0.00
2014-3-24,54.1,40.3,28.0,30.8,25.2,18.8,76,57,37,30.29,30.12,0,0,0,0.00
2014-3-25,49.8,36.8,26.4,30.5,22.3,14.1,84,59,32,30.40,30.24,0,0,0,0.00
2014-3-26,56.7,40.0,25.0,37.1,24.9,14.8,82,57,31,30.29,29.92,0,0,0,0.00
2014-3-27,67.3,56.3,48.4,55.8,47.3,35.6,85,72,61,29.92,29.68,0,0,0,0.00
2014-3-28,57.2,47.3,40.5,45.1,40.4,34.7,89,78,60,30.11,29.87,0,0,0,0.00
2014-3-29,63.7,46.4,31.3,43.2,36.1,28.5,90,70,42,30.31,30.11,0,0,0,0.00
2014-3-30,72.9,52.0,28.8,43.1,35.3,24.5,87,57,30,30.29,30.00,0,0,0,0.00
2014-3-31,64.0,57.5,52.3,50.7,43.2,36.1,83,60,45,30.03,29.84,0,0,0,0.00
2014-4-1,73.2,57.5,46.0,57.9,46.7,35.4,87,68,49,30.10,29.92,0,0,0,0.00
2014-4-2,76.3,67.7,58.3,63.7,60.0,52.5,87,77,64,29.95,29.77,0,0,0,0.00
2014-4-3,79.2,68.0,50.2,65.0,59.7,43.6,87,75,54,29.88,29.67,0,0,0,0.00
2014-4-4,58.1,46.1,35.4,43.4,33.2,24.8,79,62,42,30.19,29.88,0,0,0,0.00
2014-4-5,66.0,47.4,29.8,37.1,31.4,23.7,84,57,31,30.24,30.04,0,0,0,0.00
2014-4-6,56.5,48.3,43.0,42.3,38.4,33.2,86,69,53,30.13,29.83,0,0,0,0.00
2014-4-7,64.2,50.4,40.8,47.8,42.0,37.6,89,74,49,29.93,29.80,0,0,0,0.00
2014-4-8,59.9,50.0,36.3,43.7,36.8,24.2,85,63,36,30.17,29.90,0,0,0,0.00
2014-4-9,74.3,53.0,29.1,40.0,32.6,22.8,79,50,26,30.24,30.01,0,0,0,0.00
2014-4-10,83.8,69.8,58.8,51.7,46.1,37.7,55,44,30,30.01,29.87,0,0,0,0.00
2014-4-11,85.1,67.9,52.2,59.6,52.2,43.3,75,58,40,30.11,29.97,0,0,0,0.00
2014-4-12,79.5,68.8,57.7,60.4,55.5,49.1,77,64,45,30.02,29.79,0,0,0,0.00
2014-4-13,70.7,64.1,49.6,59.9,55.7,45.4,88,74,61,29.81,29.58,0,0,0,0.00
2014-4-14,49.3,38.5,30.9,44.9,29.3,21.2,85,70,58,30.22,29.80,0,0,0,0.00
2014-4-15,61.5,41.3,23.5,32.4,24.7,18.0,80,56,30,30.28,30.13,0,0,0,0.00
2014-4-16,63.1,51.9,37.2,35.4,30.6,23.8,60,45,33,30.16,30.01,0,0,0,0.00
2014-4-17,71.4,57.8,36.5,44.3,37.8,25.1,63,48,35,30.27,30.13,0,0,0,0.00
2014-4-18,77.7,60.4,44.2,48.2,42.3,36.4,76,54,32,30.31,30.15,0,0,0,0.00
2014-4-19,53.4,51.0,46.2,40.9,39.4,37.4,71,65,61,30.23,30.21,0,0,0,0.00
2014-4-20,77.7,73.7,67.3,54.2,52.8,51.8,61,48,43,30.21,30.17,0,0,0,0.00
2014-4-21,67.3,61.4,54.0,61.4,55.8,49.5,86,82,76,30.06,29.99,0,0,0,0.00
2014-4-22,54.1,53.1,50.9,50.3,49.3,47.4,88,87,86,30.06,30.04,0,0,0,0.00
2014-4-23,82.2,72.3,66.0,52.0,49.9,47.9,53,46,35,29.96,29.86,0,0,0,0.00
2014-4-24,69.1,61.7,49.6,59.3,50.5,41.1,85,68,51,29.96,29.71,0,0,0,0.00
2014-4-25,79.5,64.5,39.4,50.4,41.0,34.4,82,47,24,30.09,29.94,0,0,0,0.00
2014-4-26,83.1,69.6,53.6,61.2,49.4,37.3,66,49,39,29.94,29.72,0,0,0,0.00
2014-4-27,79.0,71.9,67.8,66.8,62.8,59.6,82,73,65,29.72,29.46,0,0,0,0.00
2014-4-28,68.7,62.3,57.0,46.1,44.3,42.8,66,52,40,29.63,29.54,0,0,0,0.00
2014-4-29,56.7,51.9,45.0,40.2,38.4,35.8,72,60,52,29.94,29.71,0,0,0,0.00
2014-4-30,56.1,48.5,36.5,39.3,35.1,29.6,76,60,45,30.10,29.93,0,0,0,0.00
2014-5-1,36.3,35.7,34.9,29.9,29.5,29.0,79,78,77,30.09,30.08,0,0,0,0.00
2014-5-4,84.6,76.5,65.3,47.1,45.8,44.2,47,35,27,30.02,29.90,0,0,0,0.00
2014-5-5,70.3,70.2,70.2,54.9,54.8,54.7,58,58,58,29.84,29.83,0,0,0,0.00
2014-5-6,85.6,74.3,64.9,63.1,57.9,51.7,66,57,46,29.83,29.73,0,0,0,0.00
2014-5-7,84.4,74.1,66.4,64.5,59.6,55.9,71,61,49,29.88,29.79,0,0,0,0.00
2014-5-8,78.6,68.6,62.6,65.3,60.6,57.0,90,76,61,29.95,29.80,0,0,0,0.00
2014-5-9,65.5,61.1,58.8,61.5,57.4,55.6,90,87,82,29.95,29.87,0,0,0,0.00
2014-5-17,62.2,57.3,52.2,51.1,48.6,46.5,81,73,65,30.19,30.13,0,0,0,0.00
2014-5-18,74.5,58.9,45.1,59.0,50.5,41.7,89,75,57,30.22,30.09,0,0,0,0.00
2014-5-19,81.1,68.7,55.4,60.0,57.0,50.8,87,68,44,30.10,29.93,0,0,0,0.00
2014-5-20,83.7,73.2,65.8,62.6,60.1,57.8,77,65,46,30.03,29.95,0,0,0,0.00
2014-5-21,83.1,73.5,65.8,66.4,62.4,58.0,82,69,56,30.11,29.99,0,0,0,0.00
2014-5-22,87.1,71.2,58.1,66.9,60.4,54.9,90,71,43,30.20,30.09,0,0,0,0.00
2014-5-23,86.7,71.2,57.7,66.5,60.9,53.9,89,72,46,30.18,30.08,0,0,0,0.00
2014-5-24,85.3,72.0,64.6,67.9,63.2,60.5,90,75,43,30.14,30.05,0,0,0,0.00
2014-5-25,64.0,60.3,58.1,59.5,56.7,54.9,90,88,85,30.12,30.05,0,0,0,0.00
2014-5-26,78.4,71.5,64.2,67.0,64.2,60.7,88,78,66,30.12,30.06,0,0,0,0.00
2014-5-27,76.3,66.6,61.9,65.7,61.8,59.0,91,85,67,30.10,29.96,0,0,0,0.00
2014-5-28,75.2,67.8,60.4,66.1,61.9,57.8,99,82,71,30.04,29.96,0,0,0,0.00
2014-5-29,79.5,68.2,58.8,67.1,62.2,55.9,92,82,64,30.00,29.93,0,0,0,0.00
2014-5-30,79.0,70.4,64.8,68.0,64.2,61.3,90,81,65,30.05,29.98,0,0,0,0.00
2014-5-31,84.9,72.5,62.4,69.2,64.1,59.5,92,76,55,30.08,30.01,0,0,0,0.00
2014-6-1,83.5,72.8,62.8,69.0,65.0,59.6,91,77,60,30.07,29.92,0,0,0,0.00
2014-6-2,82.2,73.1,63.1,69.3,65.8,59.6,93,79,63,30.10,29.97,0,0,0,0.00
2014-6-3,88.3,82.1,75.0,71.3,69.1,67.0,77,65,51,30.11,29.90,0,0,0,0.00
2014-6-4,89.4,78.4,70.0,72.1,68.7,64.5,86,73,55,29.99,29.84,0,0,0,0.00
2014-6-5,84.4,75.7,69.1,71.4,68.3,65.1,90,78,61,30.02,29.82,0,0,0,0.00
2014-6-6,80.4,73.2,67.6,70.3,66.9,63.5,90,81,65,30.07,29.87,0,0,0,0.00
2014-6-7,83.1,72.3,65.8,71.4,66.1,61.0,90,81,64,30.00,29.77,0,0,0,0.00
2014-6-8,65.8,64.6,62.1,62.5,61.2,59.8,92,89,85,30.08,29.95,0,0,0,0.00
2014-6-9,72.3,68.1,62.2,66.0,63.5,59.0,93,86,76,29.85,29.72,0,0,0,0.00
2014-6-10,74.8,63.7,59.9,65.3,59.6,57.1,92,87,68,29.87,29.72,0,0,0,0.00
2014-6-11,81.5,67.9,58.8,63.9,59.2,56.2,92,76,48,29.95,29.85,0,0,0,0.00
2014-6-12,82.0,70.2,61.5,68.3,62.4,57.3,90,77,57,30.04,29.87,0,0,0,0.00
2014-6-13,81.3,68.1,55.2,62.4,56.1,51.7,91,68,42,30.12,30.00,0,0,0,0.00
2014-6-14,81.7,70.6,56.5,66.7,60.6,51.7,87,71,58,30.05,29.90,0,0,0,0.00
2014-6-15,82.6,73.2,61.9,69.6,65.4,58.2,91,77,59,30.10,29.85,0,0,0,0.00
2014-6-16,87.4,79.1,71.8,71.4,68.1,66.3,83,70,53,30.12,29.99,0,0,0,0.00
2014-6-17,86.5,78.8,72.7,71.6,68.9,66.8,83,72,59,30.08,29.98,0,0,0,0.00
2014-6-18,87.4,78.9,72.9,69.5,67.4,66.1,82,69,52,30.07,30.00,0,0,0,0.00
2014-6-19,81.3,75.0,68.7,69.9,67.0,64.5,87,76,62,30.13,30.03,0,0,0,0.00
2014-6-20,89.2,77.7,66.9,72.1,67.7,63.0,91,73,51,30.15,30.07,0,0,0,0.00
2014-6-21,90.1,77.1,66.4,72.5,66.8,61.8,88,72,51,30.11,29.96,0,0,0,0.00
2014-6-22,91.0,74.8,67.1,70.9,66.8,61.4,89,77,47,30.02,29.89,0,0,0,0.00
2014-6-23,80.2,69.3,65.1,70.8,65.6,62.7,92,88,72,30.00,29.90,0,0,0,0.00
2014-6-24,86.2,76.9,64.4,71.7,65.4,62.1,99,69,53,30.13,30.00,0,0,0,0.00
2014-6-25,83.5,69.9,64.0,69.2,64.4,60.8,90,83,59,30.13,30.04,0,0,0,0.00
2014-6-26,84.7,73.3,63.1,70.2,65.6,60.3,92,78,57,30.10,29.95,0,0,0,0.00
2014-6-27,80.8,74.8,68.9,68.5,66.8,64.5,86,77,64,30.02,29.93,0,0,0,0.00
2014-6-28,81.3,74.1,69.6,69.7,66.6,62.2,86,78,67,30.05,29.96,0,0,0,0.00
2014-6-29,86.5,79.3,70.2,74.3,71.5,65.7,89,78,65,30.08,29.97,0,0,0,0.00
2014-6-30,90.5,81.0,73.6,72.3,68.3,65.3,84,67,45,30.02,29.87,0,0,0,0.00
2014-7-1,88.2,79.2,72.7,74.1,68.7,63.7,79,71,59,30.08,29.90,0,0,0,0.00
2014-7-2,81.7,73.2,61.7,65.3,60.1,52.4,85,65,43,30.21,30.05,0,0,0,0.00
2014-7-3,83.3,67.6,54.3,60.3,54.4,49.1,84,65,40,30.27,30.18,0,0,0,0.00
2014-7-4,62.2,60.5,59.2,54.4,53.8,53.4,83,79,74,30.27,30.25,0,0,0,0.00
2014-7-7,92.5,84.8,74.3,71.7,68.6,66.3,78,59,48,30.04,29.90,0,0,0,0.00
2014-7-8,93.0,80.2,71.4,72.6,68.0,62.7,78,67,48,30.09,29.96,0,0,0,0.00
2014-7-9,89.1,75.2,63.3,68.6,62.4,58.9,91,67,43,30.13,30.05,0,0,0,0.00
2014-7-10,75.4,68.4,63.1,68.1,63.3,58.6,91,84,72,30.20,30.07,0,0,0,0.00
2014-7-11,90.7,77.6,65.1,71.6,66.6,61.2,89,71,50,30.20,30.11,0,0,0,0.00
2014-7-12,93.4,80.0,68.5,71.5,67.3,62.8,88,67,45,30.23,30.10,0,0,0,0.00
2014-7-13,94.6,81.8,69.6,71.7,68.1,62.5,80,65,41,30.14,30.00,0,0,0,0.00
2014-7-14,87.4,77.8,70.3,74.9,67.6,55.2,89,72,46,30.12,29.98,0,0,0,0.00
2014-7-15,76.1,67.6,58.8,55.9,52.9,49.4,79,60,44,30.17,30.06,0,0,0,0.00
2014-7-16,75.9,63.0,50.4,59.5,53.6,46.0,87,73,47,30.15,30.06,0,0,0,0.00
2014-7-17,69.6,63.0,58.6,60.8,58.0,55.3,89,84,70,30.12,30.07,0,0,0,0.00
2014-7-18,72.9,63.9,56.1,61.2,57.0,53.5,91,79,64,30.13,30.05,0,0,0,0.00
2014-7-19,80.2,66.4,53.4,63.7,57.6,50.2,91,75,53,30.13,30.05,0,0,0,0.00
2014-7-20,85.3,70.2,56.5,66.2,60.4,53.0,90,73,51,30.13,30.04,0,0,0,0.00
2014-7-21,91.8,74.8,59.9,73.0,64.9,56.0,90,73,52,30.16,30.06,0,0,0,0.00
2014-7-22,93.4,78.2,64.2,76.4,69.2,60.7,90,75,55,30.17,30.09,0,0,0,0.00
2014-7-23,91.9,76.8,68.0,77.5,68.8,63.0,89,77,59,30.19,30.08,0,0,0,0.00
2014-7-24,91.0,73.5,61.5,72.3,65.2,58.3,91,77,51,30.17,30.05,0,0,0,0.00
2014-7-25,91.8,79.6,66.4,71.9,68.5,62.2,90,71,51,30.10,29.98,0,0,0,0.00
2014-7-26,96.4,82.8,73.8,72.1,69.9,68.3,85,67,42,30.06,29.97,0,0,0,0.00
2014-7-27,93.7,81.5,72.1,74.3,67.3,56.7,79,63,43,30.15,30.00,0,0,0,0.00
2014-7-28,86.2,73.3,63.0,61.1,58.3,54.3,83,61,41,30.25,30.13,0,0,0,0.00
2014-7-29,86.7,70.4,57.4,62.6,57.5,52.2,85,66,43,30.23,30.12,0,0,0,0.00
2014-7-30,69.4,66.3,63.3,66.0,61.2,57.0,89,84,77,30.16,30.11,0,0,0,0.00
2014-7-31,72.1,68.3,64.9,66.3,64.4,62.0,99,88,79,30.15,30.08,0,0,0,0.00
2014-8-1,87.1,71.6,63.7,66.8,63.0,60.4,91,76,49,30.16,30.07,0,0,0,0.00
2014-8-2,88.9,73.0,60.6,68.3,62.6,57.4,91,72,45,30.19,30.10,0,0,0,0.00
2014-8-3,91.9,74.8,62.4,68.9,62.3,57.7,90,68,36,30.22,30.10,0,0,0,0.00
2014-8-4,94.6,75.6,61.3,67.9,62.9,57.3,88,67,42,30.19,30.08,0,0,0,0.00
2014-8-5,94.8,76.2,63.1,67.5,63.0,58.9,88,66,39,30.18,30.10,0,0,0,0.00
2014-8-6,93.4,77.9,62.4,73.0,66.1,58.2,88,69,46,30.12,29.98,0,0,0,0.00
2014-8-7,92.5,81.4,67.3,72.3,69.6,62.6,85,69,49,30.07,29.91,0,0,0,0.00
2014-8-8,88.3,75.3,69.4,76.5,70.1,65.9,91,84,64,30.03,29.95,0,0,0,0.00
2014-8-9,89.6,72.6,67.1,76.2,68.2,63.9,92,87,64,30.10,30.00,0,0,0,0.00
2014-8-10,91.2,76.3,64.2,74.9,68.7,61.9,93,79,58,30.09,30.00,0,0,0,0.00
2014-8-11,87.4,75.1,66.6,70.4,66.4,62.9,91,75,54,30.13,30.03,0,0,0,0.00
2014-8-12,82.2,69.5,57.7,63.8,56.4,52.2,87,65,41,30.16,30.08,0,0,0,0.00
2014-8-13,87.1,68.6,53.4,61.6,56.0,49.6,89,67,38,30.20,30.10,0,0,0,0.00
2014-8-14,91.2,72.3,56.8,64.9,59.7,53.0,89,68,41,30.17,30.05,0,0,0,0.00
2014-8-15,90.3,74.8,61.7,68.8,63.2,57.5,88,69,47,30.11,29.98,0,0,0,0.00
2014-8-16,90.1,78.1,71.4,72.5,67.0,61.9,85,69,51,30.01,29.91,0,0,0,0.00
2014-8-17,94.8,80.3,70.3,73.1,69.8,66.6,89,72,48,30.02,29.93,0,0,0,0.00
2014-8-18,92.5,75.8,67.3,72.5,67.0,62.8,88,75,50,30.03,29.91,0,0,0,0.00
2014-8-19,97.0,82.2,69.6,71.7,68.4,63.0,85,65,42,29.98,29.89,0,0,0,0.00
2014-8-20,93.6,81.4,70.9,71.2,67.0,61.9,87,64,36,30.06,29.96,0,0,0,0.00
2014-8-21,94.5,82.6,74.7,71.5,69.0,66.7,80,65,44,30.11,30.04,0,0,0,0.00
2014-8-22,97.7,84.4,75.7,74.2,70.7,67.8,79,65,43,30.10,30.01,0,0,0,0.00
2014-8-23,100.8,84.4,72.5,71.0,68.0,64.5,81,61,33,30.08,29.97,0,0,0,0.00
2014-8-24,101.5,82.3,66.0,71.7,66.1,61.0,87,61,33,30.05,29.96,0,0,0,0.00
2014-8-25,102.4,82.0,65.5,71.8,65.9,61.0,88,62,35,30.10,30.00,0,0,0,0.00
2014-8-26,101.7,82.1,68.7,74.3,66.9,62.0,85,63,35,30.18,30.05,0,0,0,0.00
2014-8-27,100.0,80.2,68.5,71.2,66.6,63.2,86,66,36,30.18,30.05,0,0,0,0.00
2014-8-28,92.3,78.8,67.8,68.6,63.5,59.5,86,62,38,30.10,29.96,0,0,0,0.00
2014-8-29,90.7,76.4,70.0,68.6,65.5,60.6,82,70,45,30.01,29.95,0,0,0,0.00
2014-8-30,88.7,76.0,67.6,71.2,67.5,64.1,91,76,52,30.05,29.96,0,0,0,0.00
2014-8-31,91.8,78.9,67.8,71.2,68.0,64.1,90,71,48,30.06,29.92,0,0,0,0.00
2014-9-1,89.2,77.0,64.6,71.5,67.4,60.8,89,73,55,30.08,29.91,0,0,0,0.00
2014-9-2,77.7,73.8,66.0,69.4,66.6,62.0,87,79,71,30.10,29.95,0,0,0,0.00
2014-9-3,90.1,83.4,78.1,73.2,71.2,69.7,78,67,56,30.07,29.99,0,0,0,0.00
2014-9-4,92.8,81.6,73.9,72.5,70.0,67.6,83,69,49,30.12,30.02,0,0,0,0.00
2014-9-5,96.6,80.5,68.4,72.2,67.7,63.8,88,67,42,30.18,30.06,0,0,0,0.00
2014-9-6,74.3,66.6,61.9,68.2,62.9,58.0,92,88,80,30.23,30.14,0,0,0,0.00
2014-9-7,85.8,68.1,57.9,67.8,60.6,54.6,89,78,53,30.22,30.07,0,0,0,0.00
2014-9-8,87.3,72.6,62.2,68.7,64.4,59.0,91,76,52,30.13,30.02,0,0,0,0.00
2014-9-9,89.8,78.3,67.8,73.0,68.3,63.1,88,73,55,30.05,29.85,0,0,0,0.00
2014-9-10,93.0,80.6,72.1,73.0,69.3,66.2,82,70,50,29.96,29.81,0,0,0,0.00
2014-9-11,72.1,66.0,63.1,66.5,61.6,57.5,91,86,82,30.18,29.95,0,0,0,0.00
2014-9-12,63.1,56.8,51.3,57.5,52.8,46.9,91,86,81,30.35,30.15,0,0,0,0.00
2014-9-13,72.7,57.3,48.9,53.5,48.5,44.1,85,74,51,30.39,30.25,0,0,0,0.00
2014-9-14,82.0,63.5,50.5,59.9,53.2,47.0,91,72,45,30.32,30.18,0,0,0,0.00
2014-9-15,84.0,68.5,62.2,68.7,62.4,55.2,91,81,57,30.23,30.15,0,0,0,0.00
2014-9-16,75.9,69.9,65.3,70.1,65.5,62.0,91,86,79,30.21,30.08,0,0,0,0.00
2014-9-17,86.2,73.2,63.1,72.1,65.8,60.3,93,79,62,30.09,29.94,0,0,0,0.00
2014-9-18,83.5,70.4,62.1,68.5,62.6,57.8,92,77,55,30.05,29.95,0,0,0,0.00
2014-9-19,88.7,70.9,61.2,70.1,63.3,58.3,91,78,52,30.10,30.02,0,0,0,0.00
2014-9-20,89.2,72.6,62.4,69.2,64.1,59.5,92,76,48,30.14,30.01,0,0,0,0.00
2014-9-21,82.8,69.5,57.6,70.3,59.3,48.7,92,73,38,30.24,30.07,0,0,0,0.00
2014-9-22,80.2,62.7,49.8,55.0,50.7,45.3,86,67,41,30.33,30.23,0,0,0,0.00
2014-9-23,83.5,62.4,47.8,54.3,49.5,44.0,88,66,33,30.31,30.18,0,0,0,0.00
2014-9-24,86.2,63.4,47.1,53.6,48.1,43.2,87,62,30,30.29,30.20,0,0,0,0.00
2014-9-25,87.1,66.2,51.8,59.5,53.1,46.5,84,66,37,30.30,30.20,0,0,0,0.00
2014-9-26,85.8,67.2,53.4,61.6,54.9,49.3,88,67,40,30.25,30.15,0,0,0,0.00
2014-9-27,85.6,66.6,53.4,62.5,55.7,49.3,88,70,41,30.21,30.10,0,0,0,0.00
2014-9-28,84.7,67.1,56.1,65.9,58.8,52.3,89,76,50,30.19,30.08,0,0,0,0.00
2014-9-29,90.7,69.6,55.6,66.4,57.8,52.1,90,70,35,30.14,30.00,0,0,0,0.00
2014-9-30,84.9,68.7,55.6,63.5,57.2,51.7,89,69,44,30.02,29.88,0,0,0,0.00
2014-10-1,84.9,75.2,66.0,68.4,63.7,56.9,76,68,55,29.92,29.82,0,0,0,0.00
2014-10-2,79.3,72.0,61.3,70.5,65.7,57.1,90,81,66,29.92,29.74,0,0,0,0.00
2014-10-3,63.3,54.3,39.4,57.0,46.2,34.4,90,75,49,30.23,29.91,0,0,0,0.00
2014-10-4,70.2,49.8,35.2,41.3,36.4,32.0,89,64,32,30.21,29.97,0,0,0,0.00
2014-10-5,85.6,64.2,46.6,56.2,46.4,38.1,75,55,29,29.97,29.86,0,0,0,0.00
2014-10-6,75.7,67.5,58.8,59.6,53.8,48.2,84,63,40,29.96,29.87,0,0,0,0.00
2014-10-7,93.4,73.8,63.0,67.7,61.9,57.9,86,68,41,30.04,29.84,0,0,0,0.00
2014-10-8,83.7,71.7,64.0,68.6,64.0,59.3,92,78,53,30.12,30.03,0,0,0,0.00
2014-10-9,82.9,72.4,64.0,68.7,64.9,60.5,90,78,60,30.06,29.96,0,0,0,0.00
2014-10-10,70.0,67.3,60.6,64.5,62.1,58.0,91,84,77,30.02,29.92,0,0,0,0.00
2014-10-11,53.4,52.0,51.1,51.1,49.5,48.7,92,91,90,30.13,30.04,0,0,0,0.00
2014-10-12,64.8,57.3,52.3,60.8,53.6,50.0,92,88,72,30.04,29.75,0,0,0,0.00
2014-10-13,66.2,59.3,51.6,62.0,56.0,49.0,93,89,80,29.79,29.56,0,0,0,0.00
2014-10-14,70.2,56.2,49.8,49.0,44.7,39.9,91,68,39,30.02,29.76,0,0,0,0.00
2014-10-15,75.4,53.2,40.3,47.9,40.7,35.8,87,66,35,30.11,30.01,0,0,0,0.00
2014-10-16,79.9,58.7,40.3,53.4,46.0,36.4,88,67,36,30.01,29.84,0,0,0,0.00
2014-10-17,78.4,62.7,49.6,54.0,48.2,44.9,86,62,34,30.10,29.87,0,0,0,0.00
2014-10-18,68.2,54.9,45.7,49.5,44.8,40.2,86,70,45,30.22,30.10,0,0,0,0.00
2014-10-19,71.4,55.0,42.8,52.0,45.8,39.2,88,73,49,30.25,30.11,0,0,0,0.00
2014-10-20,68.7,57.3,50.5,58.0,51.9,45.7,91,82,67,30.15,30.07,0,0,0,0.00
2014-10-21,79.9,59.5,47.1,65.7,50.3,44.1,93,75,44,30.19,30.08,0,0,0,0.00
2014-10-22,79.0,61.9,49.8,58.3,51.5,46.1,89,71,47,30.26,30.15,0,0,0,0.00
2014-10-23,62.2,56.3,51.3,53.9,49.7,46.7,86,78,73,30.23,30.13,0,0,0,0.00
2014-10-24,75.9,59.8,45.7,60.4,52.3,42.4,90,77,57,30.19,30.10,0,0,0,0.00
2014-10-25,86.5,68.4,55.6,65.7,58.9,52.1,90,74,48,30.16,30.07,0,0,0,0.00
2014-10-26,83.5,68.9,54.9,63.2,57.6,51.0,90,70,45,30.07,29.87,0,0,0,0.00
2014-10-27,75.9,69.6,64.6,59.3,56.7,53.1,72,64,55,29.92,29.79,0,0,0,0.00
2014-10-28,69.4,60.2,44.8,58.1,46.8,36.5,87,63,40,30.21,29.90,0,0,0,0.00
2014-10-29,72.7,51.4,36.7,48.8,38.2,32.4,87,65,32,30.28,30.18,0,0,0,0.00
2014-10-30,73.0,54.2,37.6,49.7,40.0,32.9,86,61,39,30.20,30.06,0,0,0,0.00
2014-10-31,52.7,45.6,33.8,39.9,32.4,20.2,79,61,40,30.44,30.17,0,0,0,0.00
2014-11-1,62.4,41.5,25.5,29.3,24.0,18.3,77,53,27,30.48,30.34,0,0,0,0.00
2014-11-2,61.3,50.9,43.3,31.2,26.5,22.2,51,39,27,30.36,30.22,0,0,0,0.00
2014-11-3,65.1,58.0,48.7,52.1,44.8,30.8,70,62,47,30.25,30.13,0,0,0,0.00
2014-11-4,61.0,53.3,46.6,53.7,48.8,43.9,90,85,70,30.26,30.07,0,0,0,0.00
2014-11-5,58.8,48.7,40.3,51.3,44.3,37.3,92,85,69,30.26,30.18,0,0,0,0.00
2014-11-6,62.1,46.4,32.7,40.5,32.7,25.0,91,63,31,30.38,30.25,0,0,0,0.00
2014-11-7,62.6,45.1,29.7,36.6,29.6,24.3,85,59,29,30.34,30.00,0,0,0,0.00
2014-11-10,73.9,66.9,58.8,47.8,45.2,41.6,58,46,38,29.74,29.57,0,0,0,0.00
2014-11-11,60.8,37.1,28.2,47.4,26.9,19.0,82,67,53,30.31,29.73,0,0,0,0.00
2014-11-12,35.8,27.6,22.3,19.2,14.9,8.3,72,59,48,30.49,30.31,0,0,0,0.00
2014-11-13,34.5,25.4,19.2,14.2,9.7,5.8,68,51,41,30.57,30.46,0,0,0,0.00
2014-11-14,37.0,23.9,16.9,19.2,13.0,9.3,76,64,40,30.49,30.31,0,0,0,0.00
2014-11-15,36.5,31.6,23.5,23.2,16.7,12.6,65,54,40,30.32,30.10,0,0,0,0.00
2014-11-16,34.9,30.0,22.8,26.6,22.7,16.4,82,75,60,30.19,30.07,0,0,0,0.00
2014-11-17,22.8,17.7,14.7,16.4,6.4,4.8,76,61,49,30.39,30.18,0,0,0,0.00
2014-11-18,45.7,29.0,13.1,22.2,15.4,6.2,78,59,38,30.43,30.18,0,0,0,0.00
2014-11-19,56.8,41.5,28.9,29.3,22.8,18.6,72,48,34,30.23,30.11,0,0,0,0.00
2014-11-20,63.0,42.3,27.3,38.9,28.6,20.1,75,60,39,30.25,30.10,0,0,0,0.00
2014-11-21,55.2,48.8,37.4,48.4,42.5,28.9,86,79,70,30.23,30.15,0,0,0,0.00
2014-11-22,56.5,52.9,50.5,52.0,48.2,46.1,90,84,77,30.18,29.77,0,0,0,0.00
2014-11-23,67.1,57.0,41.0,55.8,51.2,36.8,87,81,65,29.77,29.34,0,0,0,0.00
2014-11-24,54.0,42.4,29.5,36.9,29.2,19.8,86,62,36,30.16,29.64,0,0,0,0.00
2014-11-25,50.9,34.5,21.7,27.6,21.2,16.5,82,61,35,30.31,30.11,0,0,0,0.00
2014-11-26,52.3,40.3,28.2,32.8,26.1,20.4,73,58,41,30.38,29.98,0,0,0,0.00
2014-11-27,45.0,30.5,24.4,29.8,22.4,18.2,80,72,52,30.56,30.38,0,0,0,0.00
2014-11-28,60.1,54.8,43.0,45.0,37.6,29.3,73,53,43,30.20,29.94,0,0,0,0.00
2014-11-29,71.4,60.9,52.9,52.1,46.6,44.4,74,60,40,29.93,29.78,0,0,0,0.00
2014-11-30,72.7,58.6,36.5,56.0,48.1,30.1,79,69,52,30.28,29.84,0,0,0,0.00
2014-12-1,36.5,28.1,25.3,30.3,22.5,18.9,86,80,72,30.50,30.27,0,0,0,0.00
2014-12-2,37.2,30.7,26.2,31.9,26.0,21.0,88,83,77,30.41,30.18,0,0,0,0.00
2014-12-3,43.7,39.7,36.3,37.8,35.1,31.9,89,84,78,30.34,30.21,0,0,0,0.00
2014-12-4,54.1,50.9,47.1,51.3,47.9,44.7,91,90,88,30.22,30.13,0,0,0,0.00
2014-12-5,58.1,56.6,51.3,55.8,54.2,49.0,92,92,91,30.18,30.01,0,0,0,0.00
2014-12-6,47.7,46.9,46.0,45.2,44.5,43.6,91,91,91,30.35,30.25,0,0,0,0.00
2014-12-8,57.4,35.4,-16.4,45.7,4.7,-39.2,99,30,10,30.33,30.28,0,0,0,0.00
2014-12-9,47.1,33.9,-14.1,33.3,19.9,-14.3,99,63,10,30.41,30.30,0,0,0,0.00
2014-12-10,-13.4,-13.8,-14.1,-13.6,-14.0,-14.3,99,99,99,30.30,30.29,0,0,0,0.00
2014-12-11,43.5,38.7,34.5,10.6,-3.3,-14.0,27,18,10,30.28,30.23,0,0,0,0.00
2014-12-16,-2.6,-14.9,-19.7,-39.3,-42.8,-48.0,29,22,14,30.36,30.33,0,0,0,0.00
2014-12-17,35.4,-11.6,-19.3,10.2,-34.7,-42.4,35,29,28,30.34,30.24,0,0,0,0.00